FW8184 Weather Reports


time (UTC)temp
C
wind
direction
speed
KPH
gust
KPH
rain 1hr
cm
rain 24hr
cm
rain mn
cm
humidity
%
barometer
mb
20260505235518 11 0 0.0 1.6 0.00 0.71 0.20 64 1010.3
20260505235018 11 323 0.0 4.8 0.00 0.71 0.20 61 1010.2
20260505234534 11 0 0.0 4.8 0.00 0.71 0.20 61 1010.3
20260505234018 11 276 0.0 3.2 0.00 0.71 0.20 59 1010.2
20260505233517 11 269 1.6 3.2 0.00 0.71 0.20 57 1010.3
20260505233030 11 325 0.0 4.8 0.00 0.71 0.20 58 1010.2
20260505232517 11 0 0.0 4.8 0.00 0.71 0.20 60 1010.2
20260505232017 11 288 1.6 8.0 0.00 0.71 0.20 57 1010.3
20260505231531 11 71 1.6 8.0 0.00 0.71 0.20 57 1010.2
20260505231018 11 279 0.0 6.4 0.00 0.71 0.20 59 1010.1
20260505230517 11 0 1.6 6.4 0.00 0.71 0.20 57 1010.2
20260505230042 12 278 1.6 11.3 0.00 0.71 0.20 59 1010.1
20260505225518 12 62 1.6 11.3 0.00 0.71 0.20 58 1010.1
20260505225020 12 302 3.2 11.3 0.00 0.71 0.20 56 1010.2
20260505224537 12 332 3.2 9.7 0.00 0.71 0.20 56 1010.2
20260505224018 12 330 1.6 6.4 0.00 0.71 0.20 61 1010.3
20260505223517 12 305 0.0 4.8 0.00 0.71 0.20 60 1010.4
20260505223038 12 209 0.0 8.0 0.00 0.71 0.20 60 1010.5
20260505222518 11 258 1.6 8.0 0.00 0.71 0.20 57 1010.4
20260505222018 12 292 3.2 8.0 0.00 0.71 0.20 58 1010.4
20260505221530 11 78 1.6 6.4 0.00 0.71 0.20 58 1010.2
20260505221018 11 285 1.6 8.0 0.00 0.71 0.20 59 1010.3
20260505220517 11 266 1.6 8.0 0.00 0.71 0.20 60 1010.3
20260505220032 11 314 0.0 8.0 0.00 0.71 0.20 59 1010.4
20260505215519 11 291 0.0 8.0 0.00 0.71 0.20 59 1010.7
20260505215017 11 288 1.6 4.8 0.00 0.71 0.20 59 1010.7
20260505214537 11 0 0.0 6.4 0.00 0.71 0.20 60 1010.6
20260505214017 11 297 1.6 6.4 0.00 0.71 0.20 59 1010.4
20260505213517 11 13 0.0 4.8 0.00 0.71 0.20 60 1010.4
20260505213033 11 0 0.0 4.8 0.00 0.71 0.20 59 1010.6
20260505212518 11 0 0.0 3.2 0.00 0.71 0.20 62 1010.8
20260505212018 11 67 0.0 6.4 0.00 0.71 0.20 62 1010.6
20260505211550 11 330 0.0 6.4 0.00 0.71 0.20 64 1010.6
20260505211018 11 58 1.6 4.8 0.00 0.71 0.20 60 1010.7
20260505210517 11 63 1.6 4.8 0.00 0.71 0.20 62 1010.8
20260505210032 11 326 0.0 1.6 0.00 0.71 0.20 66 1010.8
20260505205522 11 0 0.0 3.2 0.00 0.71 0.20 69 1010.6
20260505205020 11 0 0.0 3.2 0.00 0.71 0.20 69 1010.6
20260505204546 11 287 1.6 4.8 0.00 0.71 0.20 66 1010.7
20260505204019 11 68 0.0 4.8 0.03 0.71 0.20 69 1010.8
20260505203518 11 96 1.6 4.8 0.03 0.71 0.20 71 1010.9
20260505203031 11 131 0.0 3.2 0.03 0.71 0.20 71 1011.0
20260505202517 11 131 0.0 3.2 0.03 0.71 0.20 70 1010.8
20260505202019 11 0 0.0 1.6 0.03 0.71 0.20 70 1011.0
20260505201538 11 0 0.0 1.6 0.03 0.71 0.20 74 1011.1
20260505201018 10 320 0.0 1.6 0.03 0.71 0.20 70 1011.1
20260505200518 10 0 0.0 3.2 0.03 0.71 0.20 68 1011.1
20260505200032 10 235 1.6 3.2 0.03 0.71 0.20 68 1011.2
20260505195517 10 28 0.0 4.8 0.03 0.71 0.20 70 1011.2
20260505195017 10 329 0.0 4.8 0.03 0.71 0.20 68 1011.2
20260505194535 10 67 0.0 4.8 0.00 0.69 0.18 66 1011.5
20260505194021 10 77 1.6 4.8 0.00 0.69 0.18 65 1011.6
20260505193519 10 350 1.6 4.8 0.00 0.69 0.18 66 1011.6
20260505193029 10 161 1.6 8.0 0.00 0.69 0.18 65 1011.9
20260505192518 10 335 1.6 8.0 0.00 0.69 0.18 66 1011.7
20260505192018 10 87 3.2 6.4 0.00 0.69 0.18 63 1011.9
20260505191535 10 64 1.6 9.7 0.03 0.69 0.18 68 1011.9
20260505191018 10 297 1.6 9.7 0.03 0.69 0.18 72 1011.8
20260505190516 10 306 3.2 9.7 0.03 0.69 0.18 70 1011.9
20260505190033 10 288 3.2 8.0 0.03 0.69 0.18 69 1011.8
20260505185517 10 29 1.6 6.4 0.05 0.69 0.18 69 1011.9
20260505185016 10 308 1.6 6.4 0.05 0.69 0.18 70 1011.9
20260505184538 10 0 0.0 3.2 0.08 0.69 0.18 71 1011.9
20260505184018 10 268 0.0 1.6 0.08 0.69 0.18 73 1011.9
20260505183521 10 0 0.0 4.8 0.10 0.69 0.18 78 1011.9
20260505183032 10 307 1.6 4.8 0.10 0.69 0.18 76 1012.0
20260505182517 9 0 0.0 1.6 0.13 0.69 0.18 76 1011.9
20260505182022 9 0 0.0 1.6 0.13 0.69 0.18 75 1012.0
20260505181537 9 0 0.0 1.6 0.13 0.66 0.15 79 1012.1
20260505181016 9 0 0.0 1.6 0.13 0.66 0.15 76 1012.1
20260505180517 9 0 0.0 1.6 0.13 0.66 0.15 76 1012.2
20260505180033 9 77 0.0 4.8 0.10 0.64 0.13 75 1012.1
20260505175514 9 287 0.0 4.8 0.10 0.64 0.13 75 1012.1
20260505175017 10 0 0.0 1.6 0.10 0.64 0.13 74 1012.2
20260505174537 10 0 0.0 1.6 0.08 0.61 0.10 72 1012.3
20260505174015 10 107 0.0 3.2 0.08 0.61 0.10 74 1012.4
20260505173515 10 0 0.0 9.7 0.05 0.58 0.08 71 1012.4
20260505173031 10 263 0.0 9.7 0.05 0.58 0.08 67 1012.4
20260505172519 10 327 1.6 9.7 0.03 0.56 0.05 67 1012.4
20260505172015 10 0 0.0 6.4 0.03 0.56 0.05 66 1012.2
20260505171537 11 285 1.6 6.4 0.00 0.53 0.03 63 1012.0
20260505171016 11 299 1.6 6.4 0.00 0.53 0.03 64 1011.8
20260505170515 11 345 0.0 4.8 0.00 0.53 0.03 63 1011.8
20260505170030 11 292 1.6 4.8 0.00 0.53 0.03 64 1011.9
20260505165514 11 300 1.6 4.8 0.00 0.53 0.03 62 1011.7
20260505165021 11 58 3.2 8.0 0.00 0.53 0.03 59 1011.8
20260505164533 11 300 3.2 8.0 0.00 0.53 0.03 57 1011.6
20260505164015 11 342 1.6 6.4 0.00 0.53 0.03 57 1011.7
20260505163517 11 94 1.6 9.7 0.00 0.53 0.03 57 1011.8
20260505163032 11 269 3.2 9.7 0.00 0.53 0.03 58 1011.7
20260505162515 11 346 3.2 9.7 0.00 0.53 0.03 59 1011.7
20260505162018 11 53 1.6 8.0 0.00 0.53 0.03 58 1011.6
20260505161532 11 18 1.6 6.4 0.00 0.53 0.03 58 1011.4
20260505161015 11 281 3.2 6.4 0.00 0.53 0.03 58 1011.5
20260505160521 11 283 0.0 4.8 0.00 0.53 0.03 60 1011.5
20260505153040 11 252 1.6 11.3 0.00 0.53 0.03 57 1010.5
20260505152517 11 302 3.2 11.3 0.00 0.53 0.03 56 1010.5
20260505152015 11 38 1.6 8.0 0.00 0.53 0.03 57 1010.3
20260505151532 11 81 1.6 8.0 0.00 0.53 0.03 58 1010.4
20260505151016 11 49 1.6 8.0 0.00 0.53 0.03 58 1010.2
20260505150519 11 36 3.2 8.0 0.00 0.53 0.03 56 1010.2
20260505140515 10 89 3.2 8.0 0.00 0.56 0.03 61 1010.3
20260505125015 9 85 1.6 8.0 0.00 0.56 0.03 65 1010.3
20260505124534 9 197 1.6 11.3 0.00 0.56 0.03 64 1010.6
20260505124016 9 38 4.8 12.9 0.00 0.56 0.03 64 1010.8
20260505123517 9 16 4.8 12.9 0.00 0.56 0.03 64 1010.8
20260505123045 10 244 3.2 9.7 0.00 0.56 0.03 63 1010.7
20260505122518 10 124 3.2 9.7 0.00 0.56 0.03 61 1010.6
20260505122018 10 113 3.2 9.7 0.00 0.56 0.03 60 1010.7
20260505121532 10 299 3.2 9.7 0.00 0.56 0.03 59 1010.7
20260505121018 10 94 4.8 9.7 0.00 0.56 0.03 58 1010.7
20260505120518 10 319 3.2 6.4 0.00 0.56 0.03 58 1010.6
20260505120037 10 304 1.6 8.0 0.00 0.56 0.03 58 1010.3
20260505115517 11 354 1.6 9.7 0.00 0.56 0.03 56 1010.2
20260505115017 11 79 4.8 12.9 0.00 0.56 0.03 56 1010.1
20260505114531 11 342 4.8 12.9 0.00 0.56 0.03 57 1010.2
20260505114016 11 13 3.2 9.7 0.00 0.56 0.03 59 1010.2
20260505113516 11 240 3.2 11.3 0.00 0.56 0.03 58 1010.1
20260505113029 11 65 3.2 11.3 0.00 0.56 0.03 59 1010.1
20260505112519 11 309 0.0 6.4 0.00 0.56 0.03 61 1010.3
20260505112014 11 0 0.0 6.4 0.00 0.56 0.03 58 1010.4
20260505111535 11 293 1.6 6.4 0.00 0.56 0.03 58 1010.6
20260505111017 11 285 1.6 4.8 0.00 0.56 0.03 59 1010.4
20260505110515 11 271 0.0 3.2 0.00 0.56 0.03 58 1010.4
20260505102017 11 231 4.8 14.5 0.00 0.56 0.03 57 1009.1
20260505101532 11 321 4.8 14.5 0.00 0.56 0.03 58 1009.1
20260505101017 11 77 3.2 11.3 0.00 0.56 0.03 62 1008.7
20260505100515 11 88 3.2 14.5 0.00 0.56 0.03 61 1008.8
20260505100034 11 51 3.2 14.5 0.00 0.56 0.03 59 1008.6
20260505095520 11 38 4.8 14.5 0.00 0.56 0.03 59 1008.6
20260505095017 11 65 3.2 11.3 0.00 0.56 0.03 61 1008.5
20260505094532 11 37 3.2 9.7 0.00 0.56 0.03 64 1008.5
20260505094015 11 270 1.6 6.4 0.00 0.56 0.03 65 1008.6
20260505093517 11 337 1.6 6.4 0.00 0.56 0.03 65 1008.5
20260505093031 11 287 1.6 6.4 0.00 0.56 0.03 61 1008.6
20260505092519 11 8 1.6 6.4 0.00 0.56 0.03 62 1008.8
20260505092018 11 0 1.6 9.7 0.00 0.56 0.03 62 1008.6
20260505091531 11 0 0.0 9.7 0.00 0.56 0.03 61 1008.7
20260505091017 11 100 3.2 9.7 0.03 0.56 0.03 62 1008.2
20260505090517 11 32 3.2 9.7 0.03 0.56 0.03 62 1008.1
20260505090037 11 104 3.2 9.7 0.03 0.56 0.03 61 1007.9
20260505085515 11 354 3.2 9.7 0.03 0.74 0.03 64 1007.8
20260505085015 11 77 3.2 6.4 0.03 0.74 0.03 72 1007.6
20260505084536 11 290 1.6 4.8 0.03 0.74 0.03 67 1008.0
20260505084015 11 318 1.6 4.8 0.03 0.74 0.03 68 1007.9
20260505083519 11 0 0.0 4.8 0.03 0.74 0.03 68 1007.9
20260505083037 11 296 0.0 4.8 0.03 0.74 0.03 69 1007.6
20260505082520 11 24 1.6 4.8 0.03 0.74 0.03 70 1007.4
20260505082018 11 347 1.6 11.3 0.03 0.74 0.03 70 1007.5
20260505081533 11 337 3.2 11.3 0.03 0.74 0.03 71 1007.5
20260505081019 10 276 1.6 4.8 0.00 0.71 0.00 77 1007.2
20260505080520 10 287 0.0 1.6 0.00 0.71 0.00 85 1007.1
20260505080030 10 0 0.0 0.0 0.00 0.71 0.00 85 1007.1
20260505075515 10 0 0.0 1.6 0.00 0.71 0.00 85 1007.2
20260505075017 10 0 0.0 1.6 0.00 0.71 0.00 85 1007.3
20260505074534 10 0 0.0 1.6 0.00 0.71 0.00 84 1007.3
20260505074015 10 112 0.0 1.6 0.00 0.71 0.00 81 1007.1
20260505073518 11 0 0.0 1.6 0.00 0.71 0.00 83 1007.0
20260505073035 11 253 0.0 1.6 0.00 0.71 0.00 84 1006.7
20260505072517 11 0 0.0 1.6 0.00 0.71 0.00 84 1006.2
20260505072015 11 0 0.0 1.6 0.00 0.71 0.00 82 1006.4
20260505071531 11 0 0.0 0.0 0.00 0.71 0.00 84 1006.3
20260505071017 11 0 0.0 0.0 0.00 0.71 0.00 83 1006.3
20260505070522 11 204 0.0 0.0 0.00 0.71 0.00 83 1006.2
20260505070031 11 0 0.0 0.0 0.00 0.71 0.00 83 1006.2
20260505065515 11 204 0.0 1.6 0.00 0.71 0.00 84 1006.3
20260505065016 11 204 0.0 1.6 0.00 0.71 0.00 84 1006.2
20260505064537 11 0 0.0 1.6 0.00 0.71 0.00 84 1006.0
20260505064014 12 0 0.0 0.0 0.00 0.71 0.00 84 1006.0
20260505063517 12 0 0.0 1.6 0.00 0.71 0.00 83 1006.0
20260505063031 12 0 0.0 1.6 0.00 0.71 0.00 83 1005.9
20260505062514 12 96 0.0 1.6 0.00 0.71 0.00 83 1005.7
20260505062016 12 0 0.0 0.0 0.00 0.71 0.00 82 1005.6
20260505061531 13 0 0.0 0.0 0.00 0.71 0.00 81 1005.6
20260505061014 13 0 0.0 1.6 0.00 0.71 0.00 81 1005.6
20260505060517 13 0 0.0 1.6 0.00 0.71 0.00 79 1005.5
20260505060031 13 0 0.0 1.6 0.00 0.71 0.00 79 1005.5
20260505055517 13 0 0.0 3.2 0.00 0.71 0.00 78 1005.3
20260505055014 13 0 0.0 3.2 0.00 0.71 0.00 79 1005.1
20260505054545 13 75 1.6 3.2 0.00 0.71 0.00 78 1004.8
20260505054016 13 103 0.0 3.2 0.00 0.71 0.00 80 1004.7
20260505053516 14 0 0.0 6.4 0.00 0.71 0.00 82 1004.9
20260505053030 14 5 1.6 6.4 0.00 0.71 0.00 81 1004.5
20260505052516 14 309 1.6 4.8 0.00 0.71 0.00 83 1004.5
20260505052014 14 49 0.0 4.8 0.00 0.71 0.00 84 1004.2
20260505051530 14 308 0.0 1.6 0.00 0.71 0.00 84 1004.1
20260505051018 14 0 0.0 1.6 0.00 0.71 0.00 84 1004.1
20260505050518 14 39 0.0 1.6 0.00 0.71 0.00 84 1004.1
20260505041531 15 0 0.0 1.6 0.51 0.71 0.71 85 1003.0
20260505041016 15 219 0.0 4.8 0.51 0.71 0.71 85 1002.8
20260505040515 15 103 0.0 4.8 0.51 0.71 0.71 84 1002.6
20260505040032 16 95 3.2 6.4 0.51 0.71 0.71 83 1002.7
20260505035516 16 117 3.2 6.4 0.51 0.71 0.71 83 1002.6
20260505035016 16 59 3.2 4.8 0.51 0.71 0.71 80 1002.8
20260505034538 17 90 1.6 16.1 0.48 0.69 0.69 75 1002.7
20260505034016 19 110 3.2 16.1 0.43 0.64 0.64 68 1001.8
20260505033516 20 30 6.4 17.7 0.00 0.20 0.20 58 1002.4
20260505033032 20 286 6.4 17.7 0.00 0.20 0.20 58 1001.7
20260505032516 19 231 4.8 17.7 0.00 0.20 0.20 64 1001.6
20260505032017 19 46 1.6 12.9 0.00 0.20 0.20 69 1001.6
20260505031532 18 33 4.8 9.7 0.00 0.20 0.20 71 1001.1
20260505031016 18 23 1.6 3.2 0.00 0.20 0.20 72 1001.0
20260505030517 18 139 0.0 3.2 0.00 0.20 0.20 70 1000.7
20260505030044 18 187 0.0 1.6 0.00 0.20 0.20 71 1000.9
20260505025517 18 160 0.0 3.2 0.00 0.20 0.20 71 1000.9
20260505025016 18 0 0.0 3.2 0.00 0.20 0.20 71 1001.0
20260505024531 18 103 0.0 3.2 0.00 0.20 0.20 72 1000.8
20260505024016 18 138 1.6 3.2 0.00 0.20 0.20 72 1000.9
20260505023516 18 124 1.6 3.2 0.00 0.20 0.20 72 1001.0
20260505023039 18 139 0.0 1.6 0.00 0.20 0.20 73 1000.9
20260505022516 18 138 0.0 3.2 0.00 0.20 0.20 74 1000.9
20260505022017 18 123 1.6 3.2 0.00 0.20 0.20 74 1000.7
20260505021533 18 118 1.6 1.6 0.00 0.20 0.20 75 1001.0
20260505021019 18 0 0.0 1.6 0.00 0.20 0.20 74 1000.9
20260505020516 18 108 0.0 1.6 0.00 0.20 0.20 74 1000.8
20260505020034 19 109 1.6 1.6 0.00 0.20 0.20 73 1000.8
20260505015516 19 116 1.6 1.6 0.00 0.20 0.20 72 1000.7
20260505015017 19 119 1.6 1.6 0.00 0.20 0.20 71 1000.7
20260505014537 19 142 0.0 1.6 0.00 0.20 0.20 70 1000.6
20260505014016 20 139 0.0 1.6 0.00 0.20 0.20 70 1000.5
20260505013517 20 139 0.0 1.6 0.00 0.20 0.20 70 1000.4
20260505013038 20 138 0.0 1.6 0.00 0.20 0.20 70 1000.4
20260505012516 20 138 0.0 1.6 0.00 0.20 0.20 69 1000.4
20260505012017 20 0 0.0 1.6 0.00 0.20 0.20 69 1000.4
20260505011532 20 138 0.0 1.6 0.00 0.20 0.20 68 1000.3
20260505011016 20 139 1.6 1.6 0.00 0.20 0.20 68 1000.2
20260505010516 21 0 0.0 1.6 0.00 0.20 0.20 67 1000.3
20260505010032 21 108 0.0 1.6 0.00 0.20 0.20 66 1000.4
20260505005517 21 108 0.0 1.6 0.00 0.20 0.20 65 1000.2
20260505005016 21 103 0.0 3.2 0.00 0.20 0.20 65 1000.0
20260505004554 22 103 0.0 3.2 0.00 0.20 0.20 63 1000.0
20260505004015 22 148 0.0 3.2 0.00 0.20 0.20 61 1000.0
20260505003518 22 148 0.0 3.2 0.00 0.20 0.20 61 1000.2
20260505003031 23 118 0.0 1.6 0.00 0.20 0.20 60 1000.1
20260505002515 23 203 0.0 1.6 0.00 0.20 0.20 59 1000.1
20260505002016 23 0 0.0 1.6 0.00 0.20 0.20 58 1000.2
20260505001536 24 280 0.0 1.6 0.00 0.20 0.20 57 1000.2
20260505001015 24 20 0.0 6.4 0.00 0.20 0.20 56 1000.1
20260505000519 25 0 0.0 6.4 0.00 0.20 0.20 55 1000.1
20260505000037 25 118 1.6 6.4 0.00 0.20 0.20 55 1000.3